Погода в Зеленом

Украина / Днепропетровская область     48°35′28″N   34°08′15″E
темп.,
°C
ветер,
м/с
пор.,
м/с
влажн.,
%
обл.,
%
осадки,
мм/ч
давл.,
гПа
погр.,
м
1 декабря, ср
ср123:00+1зсз4871100 0.0 999286
02:00−1з59775 0.0 1000290
05:00−2зюз498591 0.0 1000260
08:000ююз61465100 0.0 1000695
11:00+1юз71171100 0.0 1000871
14:00+1зюз71191100 0.3 1000840
17:00+2з6118589 0.3 1002726
20:000зсз499046 0.3 1005460
2 декабря, чт
чт223:00−1з369384 0.1 1008339
02:00−2зюз36908 0.1 1010193
05:00−2юз348265 0.0 101084
08:00−1ю5108583 0.0 1011284
11:00+4ююз8156499 0.0 1010656
14:00+6ю81674100 0.0 1008688
17:00+6ююз8168456 0.0 1008540
20:00+6ююз81790100 0.0 1008597
3 декабря, пт
пт323:00+8юз81486100 0.0 1009741
02:00+8ююз61292100 0.0 1008556
05:00+7ююз61390100 0.0 1008408
08:00+8ю71386100 0.0 1009822
11:00+10ю8157077 0.0 1008878
14:00+11ю9156832 0.0 10061125
17:00+10ю8158490 0.0 1006598
20:00+9ююз71493100 0.0 1007571
4 декабря, сб
сб423:00+8зюз5993100 0.0 1008445
02:00+3ссз61093100 0.2 1011438
05:00+2ссз4795100 0.8 1013439
08:00+2ссз4675100 0.9 1015440
11:00+3с555799 0.0 1015548
14:00+3ссв445386 0.0 1015519
17:00+1св346498 0.0 101673
20:000св356489 0.0 101676
5 декабря, вс
вс523:00−1св356223 0.0 101687
02:00−2всв376299 0.0 1016132
05:00−2всв496198 0.0 1015187
08:00−1в410595 0.0 1015212
11:00+3вюв46595 0.0 1015349
14:00+4вюв3571100 0.0 1014279
17:00+4вюв3783100 0.0 1014182
20:00+4юв3789100 0.0 1014192